EHI
0 0 0 0 0 0 0 0 0 0 0 0 0 0 0 0 0 0 0 0 0 0 0 0 0 0 0 0 0 0 0 0 1 1 1 0 0 0 0 0 0 0 0 0
0 0 0 0 0 0 0 0 0 0 0 0 0 0 0 0 0 0 0 0 0 0 0 0 0 0 0 0 0 0 0 0 0 0 0 0 0 0 0 0 0 0 0 0
0 0 0 0 0 0 0 0 0 0 0 0 0 0 0 0 0 0 0 0 0 0 0 0 0 0 0 0 0 0 0 0 0 0 0 0 0 0 0 0 0 0 0 0
0 0 0 0 0 0 0 0 0 0 0 0 0 0 0 0 0 0 0 0 0 0 0 0 0 0 0 0 0 0 0 0 0 0 0 0 0 0 0 0 0 0 0 0
0 0 0 0 0 0 0 0 0 0 0 0 0 0 0 0 0 0 0 0 0 0 0 0 0 0 0 0 0 0 0 0 0 0 0 0 0 0 0 0 0 0 0 0
0 0 0 0 0 0 0 0 0 0 0 0 0 0 0 0 0 0 0 0 0 0 0 0 0 0 0 0 0 0 0 0 0 0 0 0 0 0 0 0 0 0 0 0
0 0 0 0 0 0 0 0 0 0 0 0 0 0 0 0 0 0 0 0 0 0 0 0 0 0 0 0 0 0 0 0 0 0 0 0 0 0 0 0 0 0 0 0
0 0 0 0 0 0 0 0 0 0 0 0 0 0 0 0 0 0 0 0 0 0 0 0 0 0 0 0 0 0 0 0 0 0 0 0 0 0 0 0 0 0 0 0
0 0 0 0 0 0 0 0 0 0 0 0 0 0 0 0 0 0 0 0 0 0 0 0 0 0 0 0 0 0 0 0 0 0 0 0 0 0 0 0 0 0 0 0
0 0 0 0 0 0 0 0 0 0 0 0 0 0 0 0 0 0 0 0 0 0 0 0 0 0 0 0 0 0 0 0 0 0 0 0 0 0 0 0 0 0 0 0
0 0 0 0 0 0 0 0 0 0 0 0 0 0 0 0 0 0 0 0 0 0 0 0 0 0 0 0 0 0 0 0 0 0 0 0 0 0 0 0 0 0 0 0
0 0 0 0 0 0 0 0 0 0 0 0 0 0 0 0 0 0 0 0 0 0 0 0 0 0 0 0 0 0 0 0 0 0 0 0 0 0 0 0 0 0 0 0
0 0 0 0 0 0 0 0 0 0 0 0 0 0 0 0 0 0 0 0 0 0 0 0 0 0 0 0 0 0 0 0 0 0 0 0 0 0 0 0 0 0 0 0
0 0 0 0 0 0 0 0 0 0 0 0 0 0 0 0 0 0 0 0 0 0 0 0 0 0 0 0 0 0 0 0 0 0 0 0 0 0 0 0 0 0 0 0
0 0 0 0 0 0 0 0 0 0 0 0 0 0 0 0 0 0 0 0 0 0 0 0 0 0 0 0 0 0 0 0 0 0 0 0 0 0 0 0 0 0 0 0
0 0 0 0 0 0 0 0 0 0 0 0 0 0 0 0 0 0 0 0 0 0 0 0 0 0 0 0 0 0 0 0 0 0 0 0 0 0 0 0 0 0 0 0
0 0 0 0 0 0 0 0 0 0 0 0 0 0 0 0 0 0 0 0 0 0 0 0 0 0 0 0 0 0 0 0 0 0 0 0 0 0 0 0 0 0 0 0
0 0 0 0 0 0 0 0 0 0 0 0 0 0 0 0 0 0 0 0 0 0 0 0 0 0 0 0 0 0 0 0 0 0 0 0 0 0 0 0 0 0 0 0
0 0 0 0 0 0 0 0 0 0 0 0 0 0 0 0 0 0 0 0 0 0 0 0 0 0 0 0 0 0 0 0 0 0 0 0 0 0 0 0 0 0 0 0
0 0 0 0 0 0 0 0 0 0 0 0 0 0 0 0 0 0 0 0 0 0 0 0 0 0 0 0 0 0 0 0 0 0 0 0 0 0 0 0 0 0 0 0
0 0 0 0 0 0 0 0 0 0 0 0 0 0 0 0 0 0 0 0 0 0 0 0 0 0 0 0 0 0 0 0 0 0 0 0 0 0 0 0 0 0 0 0
0 0 0 0 0 0 0 0 0 0 0 0 0 0 0 0 0 0 0 0 0 0 0 0 0 0 0 0 0 0 0 0 0 0 0 0 0 0 0 0 0 0 0 0
0 0 0 0 0 0 0 0 0 0 0 0 0 0 0 0 0 0 0 0 0 0 0 0 0 0 0 0 0 0 0 0 0 0 0 0 0 0 0 0 0 0 0 0
0 0 0 0 0 0 0 0 0 0 0 0 0 0 0 0 0 0 0 0 0 0 0 0 0 0 0 0 0 0 0 0 0 0 0 0 0 0 0 0 0 0 0 0
0 0 0 0 0 0 0 0 0 0 0 0 0 0 0 0 0 0 0 0 0 0 0 0 0 0 0 0 0 0 0 0 0 0 0 0 0 0 0 0 0 0 0 0
0 0 0 0 0 0 0 0 0 0 0 0 0 0 0 0 0 0 0 0 0 0 0 0 0 0 0 0 0 0 0 0 0 0 0 0 0 0 0 0 0 0 0 0
0 0 0 0 0 0 0 0 0 0 0 0 0 0 0 0 0 0 0 0 0 0 0 0 0 0 0 0 0 0 0 0 0 0 0 0 0 0 0 0 0 0 0 0
Wind_Speed
3 2 2 4 5 6 8 8 9 8 8 10 7 5 4 3 2 1 1 1 1 2 2 2 2 2 2 2 1 1 1 2 2 2 1 1 1 1 1 1 1 1 1 1
2 2 2 4 7 8 9 8 8 7 11 9 5 2 2 2 2 2 3 3 3 2 3 3 3 3 2 2 2 1 2 2 2 2 1 1 1 1 1 1 1 1 1 1
2 1 3 7 9 10 7 7 8 11 10 3 2 3 4 4 3 3 4 4 4 3 4 4 4 3 3 3 2 1 2 2 2 2 2 2 1 1 1 1 1 1 1 1
1 2 6 8 2 6 7 6 7 6 4 3 4 3 3 3 3 4 4 3 3 3 3 3 3 2 2 2 2 2 2 2 2 2 2 2 1 2 2 1 1 1 1 1
3 3 8 7 3 4 5 5 5 7 6 4 2 1 3 2 2 3 3 3 3 3 3 2 3 2 2 2 2 2 2 2 2 2 2 2 2 2 2 1 1 1 0 1
3 3 7 6 2 1 3 4 3 4 5 3 2 1 4 2 2 2 2 1 2 2 1 2 2 2 2 2 2 3 3 3 2 2 2 3 3 2 1 1 1 1 1 1
4 5 9 6 2 2 3 6 2 2 4 4 4 5 4 2 2 2 2 2 2 1 1 2 2 1 2 3 4 4 3 2 2 2 2 2 2 2 1 1 1 1 1 1
5 5 10 3 3 5 6 2 1 1 2 3 4 3 3 2 2 2 2 2 2 1 2 3 2 1 2 4 4 2 2 2 2 2 2 1 1 1 1 1 1 1 1 2
9 8 4 3 4 3 2 2 2 2 3 2 3 3 3 3 3 3 3 3 2 2 3 3 2 2 3 4 2 1 1 2 2 2 1 1 2 2 1 1 1 1 1 2
4 6 4 3 3 3 2 3 3 3 2 2 3 4 4 3 3 3 3 3 2 2 3 4 3 3 4 4 2 1 2 2 2 1 1 1 1 1 2 2 2 2 2 2
5 5 4 4 4 4 3 3 3 2 2 3 3 3 4 4 4 4 3 3 2 2 3 4 4 3 3 3 2 2 2 2 2 2 2 2 2 2 2 3 3 3 2 2
6 5 4 5 3 3 3 4 4 3 3 3 3 4 4 4 4 4 3 3 3 3 3 4 4 4 3 3 2 3 2 2 2 2 2 1 1 1 2 2 3 3 3 3
4 3 3 4 3 3 3 4 4 4 4 4 3 3 4 4 3 3 3 4 4 4 4 4 4 4 4 3 3 3 3 3 2 2 2 2 2 2 1 2 2 2 3 4
2 1 3 4 4 4 3 4 3 3 3 3 3 3 3 3 3 4 4 4 4 4 4 4 4 4 4 3 3 3 3 3 3 2 2 2 2 2 2 2 2 2 3 4
3 3 5 4 3 3 3 2 2 3 3 3 3 3 3 3 4 5 5 4 3 3 3 3 4 5 3 2 3 3 3 2 2 2 2 2 2 2 2 2 2 2 2 3
4 3 3 3 3 4 3 3 3 4 4 4 3 3 4 4 4 4 4 3 3 4 4 4 4 4 3 2 3 3 3 4 3 2 2 2 2 2 2 2 2 2 2 2
3 4 3 4 4 5 4 4 5 5 4 4 4 4 3 3 3 4 4 3 4 4 4 4 5 4 3 3 3 3 2 3 4 2 2 2 3 3 3 2 2 2 2 3
6 6 6 6 5 5 5 4 4 4 5 5 4 3 3 3 4 5 4 3 3 4 4 4 4 3 3 3 3 2 2 2 2 2 2 3 3 3 2 3 3 3 2 3
4 4 5 5 5 4 4 4 4 4 4 3 3 4 4 4 4 4 3 3 3 4 4 4 5 3 3 3 3 2 2 2 2 2 2 3 3 2 2 3 3 3 2 2
3 3 3 4 4 4 4 4 4 4 4 3 4 4 4 4 4 3 3 4 4 4 4 4 3 3 3 3 4 2 3 3 3 3 2 3 3 2 3 3 3 3 2 2
3 4 3 3 4 4 4 4 4 4 4 3 4 4 4 4 4 3 3 4 5 4 4 5 3 2 3 3 4 2 3 3 3 3 3 3 3 2 2 2 2 2 2 2
3 3 4 4 4 4 4 3 3 4 4 3 4 3 4 4 4 4 4 5 5 6 3 2 2 4 4 3 2 2 3 3 3 3 3 3 2 2 2 2 2 2 2 2
3 3 4 4 4 4 4 4 3 3 4 4 4 4 4 4 3 3 5 4 3 6 4 3 5 6 4 2 1 2 3 3 3 3 3 3 3 3 3 3 2 2 2 2
3 3 3 3 3 3 4 4 3 3 3 4 4 4 4 3 3 3 4 6 6 6 3 5 6 5 4 1 2 2 2 3 3 3 3 3 2 2 2 2 2 2 2 3
3 3 3 3 3 3 4 4 3 3 3 3 4 4 3 3 3 3 3 4 6 5 3 4 6 5 2 1 2 2 2 3 3 2 2 2 2 3 3 2 3 2 2 2
3 3 3 4 3 3 3 2 2 3 2 3 3 3 2 2 3 3 3 3 4 5 3 2 3 3 1 1 2 2 2 3 3 2 2 2 3 3 2 3 3 3 2 2
3 3 2 3 3 2 2 2 3 3 3 3 4 3 3 2 2 2 3 2 2 2 2 2 2 2 2 2 2 2 2 2 2 2 2 2 2 3 3 3 3 2 2 2
Wind_Direction
246 246 189 211 216 200 202 204 210 231 236 254 254 248 249 241 242 241 249 270 257 259 261 269 274 277 274 278 282 273 249 234 227 230 223 220 223 231 243 242 255 256 265 278
280 257 226 255 243 224 225 225 228 247 263 257 254 244 250 253 231 242 253 254 255 254 255 256 255 259 267 268 269 263 249 246 234 223 220 219 230 230 222 243 266 249 241 256
246 313 8 267 229 210 210 210 199 226 243 253 254 238 230 230 220 231 251 258 255 250 249 252 248 243 242 248 260 264 258 257 237 222 223 230 231 225 226 215 203 238 251 264
168 75 238 246 217 197 213 237 220 232 241 234 235 248 254 225 213 244 256 261 267 260 260 258 250 246 245 250 248 247 254 261 251 230 226 230 219 223 234 228 216 228 252 268
156 219 273 291 260 188 192 256 231 221 238 249 254 337 303 252 233 245 250 260 263 260 254 260 257 239 231 255 252 244 245 251 249 233 228 229 223 228 233 216 224 232 274 282
155 193 240 254 270 204 119 273 259 201 210 211 132 279 264 272 285 273 278 276 278 283 277 275 267 232 222 249 248 246 249 253 255 236 225 228 229 227 232 210 215 222 279 287
185 219 259 259 265 113 168 247 263 200 202 188 201 222 239 267 276 259 278 290 296 299 292 278 275 239 238 248 246 249 253 254 251 235 229 222 231 231 215 211 208 220 262 290
170 205 251 233 140 184 220 252 260 248 223 219 232 242 247 249 251 268 285 294 297 299 297 293 285 252 258 260 258 255 246 246 242 228 232 227 202 227 225 200 198 225 251 291
192 213 243 195 206 230 206 227 250 248 248 224 235 249 255 253 255 267 265 273 278 270 292 298 288 253 253 268 269 258 252 255 250 236 228 221 211 211 215 204 215 238 237 259
239 263 267 263 274 289 278 261 267 257 247 230 242 248 258 261 266 271 265 265 267 267 277 286 286 269 255 264 255 234 247 258 256 234 231 219 226 222 215 214 219 232 242 255
248 272 299 282 259 261 274 282 284 285 276 255 247 261 257 258 262 264 264 261 250 250 260 272 281 275 271 263 231 229 246 251 249 238 220 217 221 223 226 226 224 223 229 232
228 232 221 255 263 266 265 270 268 271 278 269 240 249 257 259 258 256 261 264 261 258 260 270 277 279 278 261 224 219 238 243 238 234 225 215 216 264 275 258 266 263 263 260
235 250 242 267 284 277 262 267 266 256 250 261 260 250 252 263 265 260 260 261 258 257 259 265 272 278 277 260 232 227 234 239 233 228 225 218 214 212 257 312 314 298 287 282
257 277 277 271 272 278 275 275 277 275 264 255 251 255 257 261 266 265 262 260 260 258 259 261 269 276 274 258 237 236 238 240 234 225 226 225 219 218 219 233 276 295 292 287
265 247 246 270 283 289 286 286 292 288 282 279 263 254 255 259 265 270 270 267 266 263 264 265 268 274 276 254 238 236 238 238 232 228 229 229 218 211 215 223 241 267 295 296
272 278 266 265 271 276 273 263 260 267 268 267 265 262 260 261 267 275 273 258 253 264 269 266 267 270 267 246 240 241 242 244 240 227 222 223 214 210 215 220 232 246 257 269
248 264 265 270 271 271 265 255 250 256 258 257 259 262 262 270 279 282 280 270 259 260 263 263 269 276 268 248 236 237 240 239 238 236 225 223 220 215 216 219 227 238 247 257
232 240 243 243 253 265 274 269 261 258 257 258 257 256 251 252 262 271 278 281 280 277 272 268 269 275 267 255 242 231 224 227 225 229 232 230 229 218 215 222 229 237 254 264
250 251 256 255 252 254 262 266 265 262 261 254 247 251 255 257 262 270 276 275 273 276 280 275 275 275 266 257 247 224 215 224 232 236 232 237 243 226 221 227 233 235 241 248
269 268 267 269 267 258 262 266 266 266 261 250 250 256 262 266 266 268 267 265 261 261 268 274 275 266 259 252 245 230 221 223 228 234 232 228 230 230 230 234 235 236 236 237
280 281 278 279 283 279 268 262 257 261 264 251 245 251 260 270 269 260 260 273 277 271 269 273 272 266 258 254 244 224 219 221 226 227 228 230 232 235 236 238 240 240 237 237
280 281 279 280 282 286 286 275 263 262 264 260 256 256 263 271 272 268 256 256 270 282 283 267 262 260 261 256 231 219 219 221 226 227 228 228 229 236 239 238 241 245 243 239
280 278 274 274 275 282 292 287 274 264 260 259 255 253 255 260 257 257 274 269 268 276 280 261 267 270 267 247 231 228 225 224 226 229 229 229 228 232 236 237 241 245 247 243
282 281 276 279 284 283 284 285 280 273 266 267 262 254 252 262 268 256 260 278 282 282 276 272 276 275 272 246 232 232 231 232 233 234 232 230 229 231 236 235 237 239 239 241
275 276 274 272 270 270 273 282 285 279 273 274 275 268 257 247 253 273 277 274 279 286 284 279 282 282 271 238 230 233 232 234 234 228 225 229 233 233 235 236 234 234 234 237
270 268 266 262 261 265 269 271 275 279 280 286 290 285 279 274 267 272 275 273 273 283 284 279 277 278 268 244 240 241 239 247 255 246 231 230 232 234 235 238 240 235 233 236
278 274 274 279 276 264 260 262 268 274 272 270 283 290 289 288 285 282 280 282 282 282 284 285 280 271 263 253 248 246 243 240 237 233 231 228 228 230 232 234 238 234 229 231